Flag for Switzerland Weather past 2 weeks in Altstätten, St. Gallen, Switzerland

Now
61 °F

Partly sunny.


Feels Like: 61 °F
Forecast: 44 / 71 °F
Wind: 1 mph from North

Location: Saint Gallen-Altenrhein

Current Time: Aug 20, 2014 at 8:34:54 PM

Latest Report: Aug 20, 2014 at 7:50 PM


Visibility: N/A

Pressure: 30.01 "Hg

Humidity: 83%

Dew point: 55 °F

Location of AltstättenLocation

Historic Weather in Altstätten — Graph

°F

Altstätten temperature yesterday

Maximum temperature yesterday: 66 °F (at 2:20 PM)
Minimum temperature yesterday: 55 °F (at 4:20 AM)
Average temperature yesterday: 61 °F

Past Weeks' High & Low Weather Summary

 TemperatureHumidityPressure
High82 °F (Aug 10, 6:50 PM)100% (Aug 6, 2:50 AM)30.21 "Hg (Aug 6, 2:50 AM)
Low48 °F (Aug 17, 3:50 AM)35% (Aug 10, 7:20 PM)29.65 "Hg (Aug 13, 12:20 PM)
Average64 °F74%29.99 "Hg
* Reported Aug 5 7:20 PM — Aug 20 7:20 PM, Altstätten, Weather by CustomWeather, © 2014

Note: Actual official high and low records may vary slightly from our data, if they occured in-between our weather recording intervals... More about our weather records

Advertising

Altstätten weather history for previous 24 hours

 ConditionsComfort  
Time TempWeatherWind HumidityBarometerVisibility
7:20 PM
Aug 20
61 °FPartly sunny.2 mph83%29.98 "HgN/A
6:50 PM61 °FPartly sunny.1 mph77%29.98 "HgN/A
6:20 PM63 °FPartly sunny.2 mph73%30.01 "HgN/A
5:50 PM63 °FPartly sunny.2 mph68%30.01 "HgN/A
5:20 PM63 °FPartly sunny.3 mph68%30.01 "HgN/A
4:50 PM63 °FPartly sunny.2 mph68%30.01 "HgN/A
4:20 PM63 °FPartly sunny.1 mph68%30.01 "HgN/A
3:50 PM63 °FPartly sunny.1 mph64%30.01 "HgN/A
3:20 PM63 °FPartly sunny.1 mph64%30.01 "HgN/A
2:50 PM63 °FPartly sunny.2 mph64%30.04 "HgN/A
2:20 PM63 °FPartly sunny.1 mph64%30.04 "HgN/A
1:50 PM61 °FPartly sunny.2 mph68%30.04 "HgN/A
1:20 PM61 °FPartly sunny.5 mph68%30.04 "HgN/A
12:50 PM61 °FPartly sunny.3 mph72%30.04 "HgN/A
12:20 PM61 °FPartly sunny.6 mph68%30.04 "HgN/A
11:50 AM61 °FPartly sunny.5 mph68%30.04 "HgN/A
11:20 AM61 °FPartly sunny.5 mph68%30.04 "HgN/A
10:50 AM59 °FBroken clouds.3 mph72%30.04 "HgN/A
10:20 AM59 °FBroken clouds.5 mph72%30.04 "HgN/A
9:50 AM59 °FBroken clouds.5 mph72%30.04 "HgN/A
9:20 AM61 °FBroken clouds.6 mph68%30.04 "HgN/A
8:50 AM61 °FBroken clouds.3 mph68%30.04 "HgN/A
8:20 AM59 °FPartly sunny.3 mph68%30.04 "HgN/A
7:50 AM59 °FPartly sunny.2 mph72%30.04 "HgN/A
7:20 AM59 °FPassing clouds.2 mph77%30.04 "HgN/A
6:50 AM59 °FPassing clouds.1 mph72%30.04 "HgN/A
6:20 AM59 °FOvercast.2 mph72%30.04 "HgN/A
5:50 AM59 °FOvercast.2 mph77%30.04 "HgN/A
5:20 AM59 °FOvercast.2 mph72%30.04 "HgN/A
4:50 AM59 °FOvercast.5 mph72%30.04 "HgN/A
4:20 AM61 °FPassing clouds.6 mph68%30.01 "HgN/A
3:50 AM59 °FOvercast.1 mph77%30.01 "HgN/A
3:20 AM57 °FOvercast.2 mph82%30.01 "HgN/A
2:50 AM61 °FOvercast.3 mph59%30.01 "HgN/A
2:20 AM61 °FOvercast.3 mph59%30.01 "HgN/A
1:50 AM63 °FOvercast.2 mph56%30.01 "HgN/A
1:20 AM63 °FOvercast.6 mph59%30.01 "HgN/A
12:50 AM63 °FOvercast.5 mph52%30.01 "HgN/A
12:20 AM63 °FOvercast.6 mph49%30.01 "HgN/A
11:50 PM
Aug 19
64 °FOvercast.5 mph46%30.01 "HgN/A
11:20 PM63 °FOvercast.5 mph52%30.01 "HgN/A
10:50 PM64 °FOvercast.6 mph46%30.01 "HgN/A
10:20 PM64 °FOvercast.6 mph52%30.01 "HgN/A
9:50 PM64 °FClear.6 mph56%29.98 "HgN/A
9:20 PM63 °FOvercast.6 mph59%29.98 "HgN/A
8:50 PM64 °FPartly sunny.5 mph60%29.98 "HgN/A
8:20 PM63 °FPartly sunny.3 mph73%29.95 "HgN/A
Weather by CustomWeather, © 2014

See weather overviewHow to use our weather pages